Flag for USA Past Weather in Furnace Creek (Death Valley), California, USA — Yesterday and Last 2 Weeks

Now
80 °F

Sunny.


Feels Like: 78 °F
Forecast: 63 / 89 °F
Wind: 24 mph from Southwest

Location: Desert Rock Airport

Current Time: May 25, 2018 at 5:43:29 pm

Latest Report: May 25, 2018 at 4:55 pm


Visibility: 10 mi

Pressure: 29.75 "Hg

Humidity: 13%

Dew Point: 25 °F

Location of Furnace Creek (Death Valley)Location

Past Weather in Furnace Creek (Death Valley) — Graph

°F

Furnace Creek (Death Valley) Temperature Yesterday

Maximum temperature yesterday: 90 °F (at 2:55 pm)
Minimum temperature yesterday: 63 °F (at 5:55 am)
Average temperature yesterday: 78 °F

High & Low Weather Summary for the Past Weeks

 TemperatureHumidityPressure
High90 °F (May 24, 2:55 pm)52% (May 12, 5:55 am)29.90 "Hg (May 12, 5:55 am)
Low51 °F (May 12, 5:55 am)6% (May 16, 1:55 pm)29.35 "Hg (May 11, 5:55 pm)
Average72 °F25%29.72 "Hg
* Reported May 10 3:55 pm — May 25 3:55 pm, Furnace Creek (Death Valley). Weather by CustomWeather, © 2018

Note: Actual official high and low records may vary slightly from our data, if they occured in-between our weather recording intervals... More about our weather records

Advertising

Furnace Creek (Death Valley) Weather History for the Previous 24 Hours

Scroll right to see more
 ConditionsComfort  
Time TempWeatherWind HumidityBarometerVisibility
3:55 pm
Fri, May 25
81 °FSunny.17 mph14%29.75 "Hg10 mi
2:55 pm82 °FSunny.17 mph14%29.77 "Hg10 mi
1:55 pm82 °FSunny.23 mph16%29.78 "Hg10 mi
12:55 pm80 °FSunny.20 mph17%29.79 "Hg10 mi
11:55 am81 °FSunny.21 mph16%29.80 "Hg10 mi
9:55 am76 °FSunny.21 mph22%29.81 "Hg10 mi
8:55 am73 °FSunny.20 mph24%29.83 "Hg10 mi
7:55 am70 °FSunny.21 mph27%29.82 "Hg10 mi
6:55 am68 °FSunny.17 mph27%29.81 "Hg10 mi
5:55 am65 °FSunny.13 mph31%29.81 "Hg10 mi
4:55 am67 °FClear.14 mph30%29.80 "Hg10 mi
3:55 am70 °FClear.18 mph32%29.79 "Hg10 mi
2:55 am71 °FClear.18 mph34%29.79 "Hg10 mi
1:55 am71 °FClear.10 mph30%29.79 "Hg10 mi
12:55 am74 °FClear.12 mph23%29.79 "Hg10 mi
11:55 pm
Thu, May 24
74 °FClear.10 mph20%29.80 "Hg10 mi
10:55 pm76 °FClear.13 mph18%29.80 "Hg10 mi
9:55 pm78 °FClear.10 mph17%29.80 "Hg10 mi
8:55 pm79 °FClear.15 mph17%29.78 "Hg10 mi
7:55 pm82 °FClear.15 mph17%29.77 "Hg10 mi
6:55 pm85 °FSunny.17 mph17%29.76 "Hg10 mi
Weather by CustomWeather, © 2018

See weather overview